Year,Month,Day,Hour,Minute,Value (Times are PST for temperature in C)
2017,05,29,00,00,14.60
2017,05,29,00,01,14.60
2017,05,29,00,02,14.60
2017,05,29,00,03,14.60
2017,05,29,00,04,14.70
2017,05,29,00,05,14.60
2017,05,29,00,06,14.70
2017,05,29,00,07,14.70
2017,05,29,00,08,14.70
2017,05,29,00,09,14.70
2017,05,29,00,10,14.70
2017,05,29,00,11,14.70
2017,05,29,00,12,14.70
2017,05,29,00,13,14.60
2017,05,29,00,14,14.60
2017,05,29,00,15,14.60
2017,05,29,00,16,14.50
2017,05,29,00,17,14.50
2017,05,29,00,18,14.50
2017,05,29,00,19,14.50
2017,05,29,00,20,14.50
2017,05,29,00,21,14.50
2017,05,29,00,22,14.40
2017,05,29,00,23,14.40
2017,05,29,00,24,14.40
2017,05,29,00,25,14.40
2017,05,29,00,26,14.40
2017,05,29,00,27,14.40
2017,05,29,00,28,14.30
2017,05,29,00,29,14.30
2017,05,29,00,30,14.30
2017,05,29,00,31,14.30
2017,05,29,00,32,14.30
2017,05,29,00,33,14.30
2017,05,29,00,34,14.30
2017,05,29,00,35,14.30
2017,05,29,00,36,14.30
2017,05,29,00,37,14.30
2017,05,29,00,38,14.30
2017,05,29,00,39,14.30
2017,05,29,00,40,14.30
2017,05,29,00,41,14.30
2017,05,29,00,42,14.30
2017,05,29,00,43,14.30
2017,05,29,00,44,14.30
2017,05,29,00,45,14.20
2017,05,29,00,46,14.20
2017,05,29,00,47,14.10
2017,05,29,00,48,14.10
2017,05,29,00,49,14.10
2017,05,29,00,50,14.00
2017,05,29,00,51,14.00
2017,05,29,00,52,14.00
2017,05,29,00,53,13.90
2017,05,29,00,54,13.90
2017,05,29,00,55,13.90
2017,05,29,00,56,13.80
2017,05,29,00,57,13.80
2017,05,29,00,58,13.80
2017,05,29,00,59,13.80
2017,05,29,01,00,13.70
2017,05,29,01,01,13.70
2017,05,29,01,02,13.70
2017,05,29,01,03,13.60
2017,05,29,01,04,13.60
2017,05,29,01,05,13.60
2017,05,29,01,06,13.60
2017,05,29,01,07,13.60
2017,05,29,01,08,13.60
2017,05,29,01,09,13.60
2017,05,29,01,10,13.50
2017,05,29,01,11,13.50
2017,05,29,01,12,13.60
2017,05,29,01,13,13.60
2017,05,29,01,14,13.60
2017,05,29,01,15,13.60
2017,05,29,01,16,13.60
2017,05,29,01,17,13.60
2017,05,29,01,18,13.60
2017,05,29,01,19,13.60
2017,05,29,01,20,13.60
2017,05,29,01,21,13.60
2017,05,29,01,22,13.60
2017,05,29,01,23,13.60
2017,05,29,01,24,13.60
2017,05,29,01,25,13.60
2017,05,29,01,26,13.60
2017,05,29,01,27,13.60
2017,05,29,01,28,13.60
2017,05,29,01,29,13.60
2017,05,29,01,30,13.60
2017,05,29,01,31,13.50
2017,05,29,01,32,13.50
2017,05,29,01,33,13.50
2017,05,29,01,34,13.50
2017,05,29,01,35,13.40
2017,05,29,01,36,13.40
2017,05,29,01,37,13.40
2017,05,29,01,38,13.40
2017,05,29,01,39,13.30
2017,05,29,01,40,13.30
2017,05,29,01,41,13.30
2017,05,29,01,42,13.30
2017,05,29,01,43,13.30
2017,05,29,01,44,13.30
2017,05,29,01,45,13.30
2017,05,29,01,46,13.30
2017,05,29,01,47,13.20
2017,05,29,01,48,13.20
2017,05,29,01,49,13.20
2017,05,29,01,50,13.20
2017,05,29,01,51,13.20
2017,05,29,01,52,13.20
2017,05,29,01,53,13.20
2017,05,29,01,54,13.20
2017,05,29,01,55,13.20
2017,05,29,01,56,13.20
2017,05,29,01,57,13.20
2017,05,29,01,58,13.20
2017,05,29,01,59,13.20
2017,05,29,02,00,13.20
2017,05,29,02,01,13.20
2017,05,29,02,02,13.10
2017,05,29,02,03,13.10
2017,05,29,02,04,13.10
2017,05,29,02,05,13.10
2017,05,29,02,06,13.10
2017,05,29,02,07,13.10
2017,05,29,02,08,13.10
2017,05,29,02,09,13.10
2017,05,29,02,10,13.10
2017,05,29,02,11,13.10
2017,05,29,02,12,13.10
2017,05,29,02,13,13.10
2017,05,29,02,14,13.00
2017,05,29,02,15,13.00
2017,05,29,02,16,12.90
2017,05,29,02,17,12.90
2017,05,29,02,18,12.90
2017,05,29,02,19,12.90
2017,05,29,02,20,12.90
2017,05,29,02,21,12.90
2017,05,29,02,22,12.90
2017,05,29,02,23,12.80
2017,05,29,02,24,12.80
2017,05,29,02,25,12.80
2017,05,29,02,26,12.80
2017,05,29,02,27,12.70
2017,05,29,02,28,12.70
2017,05,29,02,29,12.70
2017,05,29,02,30,12.70
2017,05,29,02,31,12.70
2017,05,29,02,32,12.70
2017,05,29,02,33,12.60
2017,05,29,02,34,12.60
2017,05,29,02,35,12.60
2017,05,29,02,36,12.60
2017,05,29,02,37,12.60
2017,05,29,02,38,12.60
2017,05,29,02,39,12.50
2017,05,29,02,40,12.50
2017,05,29,02,41,12.50
2017,05,29,02,42,12.50
2017,05,29,02,43,12.50
2017,05,29,02,44,12.50
2017,05,29,02,45,12.50
2017,05,29,02,46,12.50
2017,05,29,02,47,12.60
2017,05,29,02,48,12.60
2017,05,29,02,49,12.60
2017,05,29,02,50,12.60
2017,05,29,02,51,12.60
2017,05,29,02,52,12.60
2017,05,29,02,53,12.60
2017,05,29,02,54,12.70
2017,05,29,02,55,12.70
2017,05,29,02,56,12.70
2017,05,29,02,57,12.70
2017,05,29,02,58,12.70
2017,05,29,02,59,12.70
2017,05,29,03,00,12.70
2017,05,29,03,01,12.60
2017,05,29,03,02,12.60
2017,05,29,03,03,12.60
2017,05,29,03,04,12.60
2017,05,29,03,05,12.60
2017,05,29,03,06,12.60
2017,05,29,03,07,12.60
2017,05,29,03,08,12.60
2017,05,29,03,09,12.50
2017,05,29,03,10,12.50
2017,05,29,03,11,12.40
2017,05,29,03,12,12.40
2017,05,29,03,13,12.40
2017,05,29,03,14,12.30
2017,05,29,03,15,12.30
2017,05,29,03,16,12.30
2017,05,29,03,17,12.30
2017,05,29,03,18,12.30
2017,05,29,03,19,12.30
2017,05,29,03,20,12.30
2017,05,29,03,21,12.30
2017,05,29,03,22,12.30
2017,05,29,03,23,12.20
2017,05,29,03,24,12.20
2017,05,29,03,25,12.20
2017,05,29,03,26,12.20
2017,05,29,03,27,12.20
2017,05,29,03,28,12.10
2017,05,29,03,29,12.10
2017,05,29,03,30,12.10
2017,05,29,03,31,12.00
2017,05,29,03,32,12.00
2017,05,29,03,33,12.00
2017,05,29,03,34,11.90
2017,05,29,03,35,11.90
2017,05,29,03,36,11.90
2017,05,29,03,37,11.90
2017,05,29,03,38,11.90
2017,05,29,03,39,11.90
2017,05,29,03,40,11.90
2017,05,29,03,41,11.90
2017,05,29,03,42,11.90
2017,05,29,03,43,11.90
2017,05,29,03,44,11.90
2017,05,29,03,45,11.90
2017,05,29,03,46,11.90
2017,05,29,03,47,11.90
2017,05,29,03,48,11.90
2017,05,29,03,49,11.90
2017,05,29,03,50,11.80
2017,05,29,03,51,11.80
2017,05,29,03,52,11.80
2017,05,29,03,53,11.80
2017,05,29,03,54,11.80
2017,05,29,03,55,11.80
2017,05,29,03,56,11.80
2017,05,29,03,57,11.80
2017,05,29,03,58,11.80
2017,05,29,03,59,11.80
2017,05,29,04,00,11.80
2017,05,29,04,01,11.80
2017,05,29,04,02,11.80
2017,05,29,04,03,11.80
2017,05,29,04,04,11.80
2017,05,29,04,05,11.70
2017,05,29,04,06,11.70
2017,05,29,04,07,11.70
2017,05,29,04,08,11.70
2017,05,29,04,09,11.60
2017,05,29,04,10,11.60
2017,05,29,04,11,11.60
2017,05,29,04,12,11.50
2017,05,29,04,13,11.50
2017,05,29,04,14,11.50
2017,05,29,04,15,11.50
2017,05,29,04,16,11.50
2017,05,29,04,17,11.50
2017,05,29,04,18,11.50
2017,05,29,04,19,11.40
2017,05,29,04,20,11.40
2017,05,29,04,21,11.40
2017,05,29,04,22,11.40
2017,05,29,04,23,11.40
2017,05,29,04,24,11.40
2017,05,29,04,25,11.40
2017,05,29,04,26,11.40
2017,05,29,04,27,11.40
2017,05,29,04,28,11.40
2017,05,29,04,29,11.40
2017,05,29,04,30,11.40
2017,05,29,04,31,11.40
2017,05,29,04,32,11.40
2017,05,29,04,33,11.40
2017,05,29,04,34,11.40
2017,05,29,04,35,11.40
2017,05,29,04,36,11.30
2017,05,29,04,37,11.30
2017,05,29,04,38,11.30
2017,05,29,04,39,11.30
2017,05,29,04,40,11.30
2017,05,29,04,41,11.30
2017,05,29,04,42,11.30
2017,05,29,04,43,11.30
2017,05,29,04,44,11.30
2017,05,29,04,45,11.30
2017,05,29,04,46,11.30
2017,05,29,04,47,11.30
2017,05,29,04,48,11.20
2017,05,29,04,49,11.20
2017,05,29,04,50,11.20
2017,05,29,04,51,11.20
2017,05,29,04,52,11.20
2017,05,29,04,53,11.20
2017,05,29,04,54,11.20
2017,05,29,04,55,11.20
2017,05,29,04,56,11.20
2017,05,29,04,57,11.20
2017,05,29,04,58,11.20
2017,05,29,04,59,11.10
2017,05,29,05,00,11.10
2017,05,29,05,01,11.10
2017,05,29,05,02,11.10
2017,05,29,05,03,11.10
2017,05,29,05,04,11.10
2017,05,29,05,05,11.10
2017,05,29,05,06,11.10
2017,05,29,05,07,11.10
2017,05,29,05,08,11.10
2017,05,29,05,09,11.10
2017,05,29,05,10,11.10
2017,05,29,05,11,11.10
2017,05,29,05,12,11.10
2017,05,29,05,13,11.00
2017,05,29,05,14,11.00
2017,05,29,05,15,11.00
2017,05,29,05,16,11.00
2017,05,29,05,17,11.00
2017,05,29,05,18,11.00
2017,05,29,05,19,11.00
2017,05,29,05,20,10.90
2017,05,29,05,21,10.90
2017,05,29,05,22,10.90
2017,05,29,05,23,10.90
2017,05,29,05,24,10.90
2017,05,29,05,25,10.90
2017,05,29,05,26,10.80
2017,05,29,05,27,10.80
2017,05,29,05,28,10.80
2017,05,29,05,29,10.70
2017,05,29,05,30,10.70
2017,05,29,05,31,10.70
2017,05,29,05,32,10.70
2017,05,29,05,33,10.70
2017,05,29,05,34,10.70
2017,05,29,05,35,10.70
2017,05,29,05,36,10.70
2017,05,29,05,37,10.70
2017,05,29,05,38,10.70
2017,05,29,05,39,10.70
2017,05,29,05,40,10.70
2017,05,29,05,41,10.70
2017,05,29,05,42,10.70
2017,05,29,05,43,10.60
2017,05,29,05,44,10.60
2017,05,29,05,45,10.60
2017,05,29,05,46,10.60
2017,05,29,05,47,10.60
2017,05,29,05,48,10.60
2017,05,29,05,49,10.60
2017,05,29,05,50,10.60
2017,05,29,05,51,10.60
2017,05,29,05,52,10.60
2017,05,29,05,53,10.60
2017,05,29,05,54,10.60
2017,05,29,05,55,10.60
2017,05,29,05,56,10.60
2017,05,29,05,57,10.50
2017,05,29,05,58,10.50
2017,05,29,05,59,10.50
2017,05,29,06,00,10.50
2017,05,29,06,01,10.40
2017,05,29,06,02,10.40
2017,05,29,06,03,10.40
2017,05,29,06,04,10.40
2017,05,29,06,05,10.40
2017,05,29,06,06,10.40
2017,05,29,06,07,10.50
2017,05,29,06,08,10.50
2017,05,29,06,09,10.50
2017,05,29,06,10,10.60
2017,05,29,06,11,10.60
2017,05,29,06,12,10.60
2017,05,29,06,13,10.60
2017,05,29,06,14,10.60
2017,05,29,06,15,10.60
2017,05,29,06,16,10.60
2017,05,29,06,17,10.60
2017,05,29,06,18,10.60
2017,05,29,06,19,10.60
2017,05,29,06,20,10.60
2017,05,29,06,21,10.70
2017,05,29,06,22,10.70
2017,05,29,06,23,10.70
2017,05,29,06,24,10.70
2017,05,29,06,25,10.70
2017,05,29,06,26,10.70
2017,05,29,06,27,10.70
2017,05,29,06,28,10.70
2017,05,29,06,29,10.70
2017,05,29,06,30,10.70
2017,05,29,06,31,10.70
2017,05,29,06,32,10.80
2017,05,29,06,33,10.80
2017,05,29,06,34,10.80
2017,05,29,06,35,10.80
2017,05,29,06,36,10.80
2017,05,29,06,37,10.90
2017,05,29,06,38,10.90
2017,05,29,06,39,11.00
2017,05,29,06,40,11.00
2017,05,29,06,41,11.10
2017,05,29,06,42,11.20
2017,05,29,06,43,11.20
2017,05,29,06,44,11.30
2017,05,29,06,45,11.30
2017,05,29,06,46,11.40
2017,05,29,06,47,11.40
2017,05,29,06,48,11.50
2017,05,29,06,49,11.50
2017,05,29,06,50,11.60
2017,05,29,06,51,11.60
2017,05,29,06,52,11.60
2017,05,29,06,53,11.70
2017,05,29,06,54,11.70
2017,05,29,06,55,11.70
2017,05,29,06,56,11.80
2017,05,29,06,57,11.80
2017,05,29,06,58,11.80
2017,05,29,06,59,11.90
2017,05,29,07,00,11.90
2017,05,29,07,01,12.00
2017,05,29,07,02,12.00
2017,05,29,07,03,12.10
2017,05,29,07,04,12.10
2017,05,29,07,05,12.10
2017,05,29,07,06,12.20
2017,05,29,07,07,12.20
2017,05,29,07,08,12.30
2017,05,29,07,09,12.30
2017,05,29,07,10,12.40
2017,05,29,07,11,12.50
2017,05,29,07,12,12.50
2017,05,29,07,13,12.60
2017,05,29,07,14,12.70
2017,05,29,07,15,12.70
2017,05,29,07,16,12.80
2017,05,29,07,17,12.90
2017,05,29,07,18,13.00
2017,05,29,07,19,13.10
2017,05,29,07,20,13.20
2017,05,29,07,21,13.20
2017,05,29,07,22,13.30
2017,05,29,07,23,13.40
2017,05,29,07,24,13.50
2017,05,29,07,25,13.60
2017,05,29,07,26,13.70
2017,05,29,07,27,13.80
2017,05,29,07,28,13.80
2017,05,29,07,29,13.90
2017,05,29,07,30,14.00
2017,05,29,07,31,14.00
2017,05,29,07,32,14.10
2017,05,29,07,33,14.20
2017,05,29,07,34,14.30
2017,05,29,07,35,14.40
2017,05,29,07,36,14.50
2017,05,29,07,37,14.60
2017,05,29,07,38,14.70
2017,05,29,07,39,14.70
2017,05,29,07,40,14.80
2017,05,29,07,41,14.90
2017,05,29,07,42,15.00
2017,05,29,07,43,15.10
2017,05,29,07,44,15.20
2017,05,29,07,45,15.30
2017,05,29,07,46,15.40
2017,05,29,07,47,15.40
2017,05,29,07,48,15.50
2017,05,29,07,49,15.50
2017,05,29,07,50,15.60
2017,05,29,07,51,15.70
2017,05,29,07,52,15.70
2017,05,29,07,53,15.80
2017,05,29,07,54,15.80
2017,05,29,07,55,15.80
2017,05,29,07,56,15.90
2017,05,29,07,57,15.90
2017,05,29,07,58,15.90
2017,05,29,07,59,15.90
2017,05,29,08,00,16.00
2017,05,29,08,01,16.00
2017,05,29,08,02,16.10
2017,05,29,08,03,16.10
2017,05,29,08,04,16.20
2017,05,29,08,05,16.20
2017,05,29,08,06,16.30
2017,05,29,08,07,16.30
2017,05,29,08,08,16.40
2017,05,29,08,09,16.50
2017,05,29,08,10,16.50
2017,05,29,08,11,16.60
2017,05,29,08,12,16.60
2017,05,29,08,13,16.70
2017,05,29,08,14,16.70
2017,05,29,08,15,16.80
2017,05,29,08,16,16.80
2017,05,29,08,17,16.90
2017,05,29,08,18,17.00
2017,05,29,08,19,17.10
2017,05,29,08,20,17.10
2017,05,29,08,21,17.20
2017,05,29,08,22,17.20
2017,05,29,08,23,17.20
2017,05,29,08,24,17.30
2017,05,29,08,25,17.30
2017,05,29,08,26,17.40
2017,05,29,08,27,17.40
2017,05,29,08,28,17.40
2017,05,29,08,29,17.40
2017,05,29,08,30,17.50
2017,05,29,08,31,17.50
2017,05,29,08,32,17.60
2017,05,29,08,33,17.60
2017,05,29,08,34,17.70
2017,05,29,08,35,17.70
2017,05,29,08,36,17.70
2017,05,29,08,37,17.80
2017,05,29,08,38,17.80
2017,05,29,08,39,17.80
2017,05,29,08,40,17.90
2017,05,29,08,41,17.90
2017,05,29,08,42,17.90
2017,05,29,08,43,18.00
2017,05,29,08,44,18.00
2017,05,29,08,45,18.10
2017,05,29,08,46,18.10
2017,05,29,08,47,18.20
2017,05,29,08,48,18.20
2017,05,29,08,49,18.20
2017,05,29,08,50,18.20
2017,05,29,08,51,18.20
2017,05,29,08,52,18.20
2017,05,29,08,53,18.30
2017,05,29,08,54,18.30
2017,05,29,08,55,18.30
2017,05,29,08,56,18.30
2017,05,29,08,57,18.30
2017,05,29,08,58,18.40
2017,05,29,08,59,18.40
2017,05,29,09,00,18.40
2017,05,29,09,01,18.40
2017,05,29,09,02,18.50
2017,05,29,09,03,18.50
2017,05,29,09,04,18.50
2017,05,29,09,05,18.60
2017,05,29,09,06,18.60
2017,05,29,09,07,18.60
2017,05,29,09,08,18.60
2017,05,29,09,09,18.60
2017,05,29,09,10,18.60
2017,05,29,09,11,18.60
2017,05,29,09,12,18.60
2017,05,29,09,13,18.60
2017,05,29,09,14,18.60
2017,05,29,09,15,18.60
2017,05,29,09,16,18.60
2017,05,29,09,17,18.60
2017,05,29,09,18,18.60
2017,05,29,09,19,18.70
2017,05,29,09,20,18.70
2017,05,29,09,21,18.70
2017,05,29,09,22,18.70
2017,05,29,09,23,18.80
2017,05,29,09,24,18.80
2017,05,29,09,25,18.80
2017,05,29,09,26,18.90
2017,05,29,09,27,18.90
2017,05,29,09,28,18.90
2017,05,29,09,29,18.90
2017,05,29,09,30,19.00
2017,05,29,09,31,19.00
2017,05,29,09,32,19.00
2017,05,29,09,33,19.10
2017,05,29,09,34,19.10
2017,05,29,09,35,19.10
2017,05,29,09,36,19.10
2017,05,29,09,37,19.10
2017,05,29,09,38,19.10
2017,05,29,09,39,19.10
2017,05,29,09,40,19.20
2017,05,29,09,41,19.20
2017,05,29,09,42,19.30
2017,05,29,09,43,19.30
2017,05,29,09,44,19.40
2017,05,29,09,45,19.40
2017,05,29,09,46,19.50
2017,05,29,09,47,19.60
2017,05,29,09,48,19.70
2017,05,29,09,49,19.70
2017,05,29,09,50,19.80
2017,05,29,09,51,19.80
2017,05,29,09,52,19.80
2017,05,29,09,53,19.80
2017,05,29,09,54,19.80
2017,05,29,09,55,19.80
2017,05,29,09,56,19.80
2017,05,29,09,57,19.80
2017,05,29,09,58,19.80
2017,05,29,09,59,19.80
2017,05,29,10,00,19.80
2017,05,29,10,01,19.80
2017,05,29,10,02,19.80
2017,05,29,10,03,19.80
2017,05,29,10,04,19.80
2017,05,29,10,05,19.70
2017,05,29,10,06,19.70
2017,05,29,10,07,19.70
2017,05,29,10,08,19.70
2017,05,29,10,09,19.70
2017,05,29,10,10,19.70
2017,05,29,10,11,19.70
2017,05,29,10,12,19.70
2017,05,29,10,13,19.70
2017,05,29,10,14,19.70
2017,05,29,10,15,19.80
2017,05,29,10,16,19.80
2017,05,29,10,17,19.80
2017,05,29,10,18,19.90
2017,05,29,10,19,19.90
2017,05,29,10,20,20.00
2017,05,29,10,21,20.10
2017,05,29,10,22,20.20
2017,05,29,10,23,20.30
2017,05,29,10,24,20.40
2017,05,29,10,25,20.50
2017,05,29,10,26,20.60
2017,05,29,10,27,20.70
2017,05,29,10,28,20.80
2017,05,29,10,29,20.90
2017,05,29,10,30,21.00
2017,05,29,10,31,21.00
2017,05,29,10,32,21.10
2017,05,29,10,33,21.20
2017,05,29,10,34,21.20
2017,05,29,10,35,21.30
2017,05,29,10,36,21.50
2017,05,29,10,37,21.60
2017,05,29,10,38,21.60
2017,05,29,10,39,21.60
2017,05,29,10,40,21.60
2017,05,29,10,41,21.60
2017,05,29,10,42,21.60
2017,05,29,10,43,21.60
2017,05,29,10,44,21.60
2017,05,29,10,45,21.60
2017,05,29,10,46,21.60
2017,05,29,10,47,21.60
2017,05,29,10,48,21.60
2017,05,29,10,49,21.60
2017,05,29,10,50,21.70
2017,05,29,10,51,21.70
2017,05,29,10,52,21.80
2017,05,29,10,53,21.80
2017,05,29,10,54,21.80
2017,05,29,10,55,21.80
2017,05,29,10,56,21.80
2017,05,29,10,57,21.80
2017,05,29,10,58,21.80
2017,05,29,10,59,21.70
2017,05,29,11,00,21.70
2017,05,29,11,01,21.60
2017,05,29,11,02,21.60
2017,05,29,11,03,21.60
2017,05,29,11,04,21.60
2017,05,29,11,05,21.60
2017,05,29,11,06,21.70
2017,05,29,11,07,21.70
2017,05,29,11,08,21.80
2017,05,29,11,09,21.80
2017,05,29,11,10,21.90
2017,05,29,11,11,22.00
2017,05,29,11,12,22.10
2017,05,29,11,13,22.20
2017,05,29,11,14,22.30
2017,05,29,11,15,22.30
2017,05,29,11,16,22.30
2017,05,29,11,17,22.30
2017,05,29,11,18,22.20
2017,05,29,11,19,22.10
2017,05,29,11,20,22.10
2017,05,29,11,21,22.10
2017,05,29,11,22,22.10
2017,05,29,11,23,22.10
2017,05,29,11,24,22.10
2017,05,29,11,25,22.20
2017,05,29,11,26,22.10
2017,05,29,11,27,22.10
2017,05,29,11,28,22.00
2017,05,29,11,29,21.90
2017,05,29,11,30,21.80
2017,05,29,11,31,21.70
2017,05,29,11,32,21.70
2017,05,29,11,33,21.70
2017,05,29,11,34,21.80
2017,05,29,11,35,21.90
2017,05,29,11,36,22.00
2017,05,29,11,37,22.00
2017,05,29,11,38,22.10
2017,05,29,11,39,22.20
2017,05,29,11,40,22.20
2017,05,29,11,41,22.20
2017,05,29,11,42,22.20
2017,05,29,11,43,22.20
2017,05,29,11,44,22.10
2017,05,29,11,45,22.10
2017,05,29,11,46,22.10
2017,05,29,11,47,22.10
2017,05,29,11,48,22.10
2017,05,29,11,49,22.00
2017,05,29,11,50,22.00
2017,05,29,11,51,22.00
2017,05,29,11,52,22.00
2017,05,29,11,53,22.00
2017,05,29,11,54,22.00
2017,05,29,11,55,22.00
2017,05,29,11,56,22.00
2017,05,29,11,57,22.10
2017,05,29,11,58,22.10
2017,05,29,11,59,22.20
2017,05,29,12,00,22.30
2017,05,29,12,01,22.30
2017,05,29,12,02,22.30
2017,05,29,12,03,22.30
2017,05,29,12,04,22.30
2017,05,29,12,05,22.30
2017,05,29,12,06,22.20
2017,05,29,12,07,22.20
2017,05,29,12,08,22.10
2017,05,29,12,09,22.00
2017,05,29,12,10,21.90
2017,05,29,12,11,21.80
2017,05,29,12,12,21.70
2017,05,29,12,13,21.70
2017,05,29,12,14,21.70
2017,05,29,12,15,21.70
2017,05,29,12,16,21.60
2017,05,29,12,17,21.60
2017,05,29,12,18,21.60
2017,05,29,12,19,21.50
2017,05,29,12,20,21.50
2017,05,29,12,21,21.50
2017,05,29,12,22,21.60
2017,05,29,12,23,21.60
2017,05,29,12,24,21.70
2017,05,29,12,25,21.70
2017,05,29,12,26,21.80
2017,05,29,12,27,21.90
2017,05,29,12,28,22.00
2017,05,29,12,29,22.00
2017,05,29,12,30,22.00
2017,05,29,12,31,22.00
2017,05,29,12,32,22.00
2017,05,29,12,33,22.00
2017,05,29,12,34,22.00
2017,05,29,12,35,22.10
2017,05,29,12,36,22.20
2017,05,29,12,37,22.20
2017,05,29,12,38,22.30
2017,05,29,12,39,22.40
2017,05,29,12,40,22.40
2017,05,29,12,41,22.50
2017,05,29,12,42,22.50
2017,05,29,12,43,22.50
2017,05,29,12,44,22.50
2017,05,29,12,45,22.50
2017,05,29,12,46,22.50
2017,05,29,12,47,22.50
2017,05,29,12,48,22.40
2017,05,29,12,49,22.40
2017,05,29,12,50,22.40
2017,05,29,12,51,22.40
2017,05,29,12,52,22.40
2017,05,29,12,53,22.40
2017,05,29,12,54,22.30
2017,05,29,12,55,22.30
2017,05,29,12,56,22.30
2017,05,29,12,57,22.30
2017,05,29,12,58,22.30
2017,05,29,12,59,22.30
2017,05,29,13,00,22.30
2017,05,29,13,01,22.30
2017,05,29,13,02,22.30
2017,05,29,13,03,22.30
2017,05,29,13,04,22.40
2017,05,29,13,05,22.40
2017,05,29,13,06,22.50
2017,05,29,13,07,22.50
2017,05,29,13,08,22.60
2017,05,29,13,09,22.60
2017,05,29,13,10,22.70
2017,05,29,13,11,22.70
2017,05,29,13,12,22.70
2017,05,29,13,13,22.70
2017,05,29,13,14,22.70
2017,05,29,13,15,22.80
2017,05,29,13,16,22.80
2017,05,29,13,17,22.90
2017,05,29,13,18,22.90
2017,05,29,13,19,23.00
2017,05,29,13,20,23.00
2017,05,29,13,21,23.10
2017,05,29,13,22,23.10
2017,05,29,13,23,23.10
2017,05,29,13,24,23.00
2017,05,29,13,25,23.00
2017,05,29,13,26,23.00
2017,05,29,13,27,23.00
2017,05,29,13,28,23.00
2017,05,29,13,29,23.10
2017,05,29,13,30,23.10
2017,05,29,13,31,23.20
2017,05,29,13,32,23.20
2017,05,29,13,33,23.30
2017,05,29,13,34,23.40
2017,05,29,13,35,23.40
2017,05,29,13,36,23.40
2017,05,29,13,37,23.40
2017,05,29,13,38,23.40
2017,05,29,13,39,23.40
2017,05,29,13,40,23.50
2017,05,29,13,41,23.60
2017,05,29,13,42,23.60
2017,05,29,13,43,23.70
2017,05,29,13,44,23.80
2017,05,29,13,45,23.80
2017,05,29,13,46,23.90
2017,05,29,13,47,23.90
2017,05,29,13,48,24.00
2017,05,29,13,49,24.00
2017,05,29,13,50,24.00
2017,05,29,13,51,24.00
2017,05,29,13,52,23.90
2017,05,29,13,53,23.90
2017,05,29,13,54,23.80
2017,05,29,13,55,23.70
2017,05,29,13,56,23.70
2017,05,29,13,57,23.60
2017,05,29,13,58,23.60
2017,05,29,13,59,23.60
2017,05,29,14,00,23.60
2017,05,29,14,01,23.60
2017,05,29,14,02,23.60
2017,05,29,14,03,23.60
2017,05,29,14,04,23.60
2017,05,29,14,05,23.60
2017,05,29,14,06,23.60
2017,05,29,14,07,23.60
2017,05,29,14,08,23.60
2017,05,29,14,09,23.60
2017,05,29,14,10,23.60
2017,05,29,14,11,23.70
2017,05,29,14,12,23.70
2017,05,29,14,13,23.80
2017,05,29,14,14,23.80
2017,05,29,14,15,23.80
2017,05,29,14,16,23.90
2017,05,29,14,17,23.90
2017,05,29,14,18,23.90
2017,05,29,14,19,24.00
2017,05,29,14,20,24.10
2017,05,29,14,21,24.20
2017,05,29,14,22,24.30
2017,05,29,14,23,24.40
2017,05,29,14,24,24.40
2017,05,29,14,25,24.40
2017,05,29,14,26,24.40
2017,05,29,14,27,24.40
2017,05,29,14,28,24.30
2017,05,29,14,29,24.30
2017,05,29,14,30,24.20
2017,05,29,14,31,24.20
2017,05,29,14,32,24.20
2017,05,29,14,33,24.20
2017,05,29,14,34,24.20
2017,05,29,14,35,24.20
2017,05,29,14,36,24.30
2017,05,29,14,37,24.20
2017,05,29,14,38,24.20
2017,05,29,14,39,24.20
2017,05,29,14,40,24.20
2017,05,29,14,41,24.20
2017,05,29,14,42,24.20
2017,05,29,14,43,24.20
2017,05,29,14,44,24.20
2017,05,29,14,45,24.20
2017,05,29,14,46,24.20
2017,05,29,14,47,24.20
2017,05,29,14,48,24.10
2017,05,29,14,49,24.00
2017,05,29,14,50,24.00
2017,05,29,14,51,24.00
2017,05,29,14,52,24.00
2017,05,29,14,53,23.90
2017,05,29,14,54,23.90
2017,05,29,14,55,23.90
2017,05,29,14,56,23.90
2017,05,29,14,57,23.90
2017,05,29,14,58,23.90
2017,05,29,14,59,23.90
2017,05,29,15,00,23.80
2017,05,29,15,01,23.80
2017,05,29,15,02,23.80
2017,05,29,15,03,23.70
2017,05,29,15,04,23.70
2017,05,29,15,05,23.70
2017,05,29,15,06,23.70
2017,05,29,15,07,23.70
2017,05,29,15,08,23.70
2017,05,29,15,09,23.70
2017,05,29,15,10,23.80
2017,05,29,15,11,23.80
2017,05,29,15,12,23.70
2017,05,29,15,13,23.70
2017,05,29,15,14,23.80
2017,05,29,15,15,23.80
2017,05,29,15,16,23.80
2017,05,29,15,17,23.80
2017,05,29,15,18,23.80
2017,05,29,15,19,23.80
2017,05,29,15,20,23.70
2017,05,29,15,21,23.60
2017,05,29,15,22,23.50
2017,05,29,15,23,23.40
2017,05,29,15,24,23.40
2017,05,29,15,25,23.30
2017,05,29,15,26,23.30
2017,05,29,15,27,23.30
2017,05,29,15,28,23.30
2017,05,29,15,29,23.40
2017,05,29,15,30,23.50
2017,05,29,15,31,23.50
2017,05,29,15,32,23.60
2017,05,29,15,33,23.60
2017,05,29,15,34,23.70
2017,05,29,15,35,23.70
2017,05,29,15,36,23.80
2017,05,29,15,37,23.70
2017,05,29,15,38,23.70
2017,05,29,15,39,23.70
2017,05,29,15,40,23.60
2017,05,29,15,41,23.60
2017,05,29,15,42,23.60
2017,05,29,15,43,23.60
2017,05,29,15,44,23.60
2017,05,29,15,45,23.60
2017,05,29,15,46,23.60
2017,05,29,15,47,23.60
2017,05,29,15,48,23.70
2017,05,29,15,49,23.70
2017,05,29,15,50,23.70
2017,05,29,15,51,23.80
2017,05,29,15,52,23.80
2017,05,29,15,53,23.80
2017,05,29,15,54,23.90
2017,05,29,15,55,23.90
2017,05,29,15,56,24.00
2017,05,29,15,57,24.10
2017,05,29,15,58,24.20
2017,05,29,15,59,24.20
2017,05,29,16,00,24.30
2017,05,29,16,01,24.30
2017,05,29,16,02,24.40
2017,05,29,16,03,24.40
2017,05,29,16,04,24.40
2017,05,29,16,05,24.40
2017,05,29,16,06,24.50
2017,05,29,16,07,24.50
2017,05,29,16,08,24.60
2017,05,29,16,09,24.70
2017,05,29,16,10,24.80
2017,05,29,16,11,24.80
2017,05,29,16,12,24.90
2017,05,29,16,13,24.90
2017,05,29,16,14,25.00
2017,05,29,16,15,25.00
2017,05,29,16,16,25.10
2017,05,29,16,17,25.20
2017,05,29,16,18,25.20
2017,05,29,16,19,25.20
2017,05,29,16,20,25.20
2017,05,29,16,21,25.20
2017,05,29,16,22,25.20
2017,05,29,16,23,25.10
2017,05,29,16,24,25.10
2017,05,29,16,25,25.10
2017,05,29,16,26,25.10
2017,05,29,16,27,25.10
2017,05,29,16,28,25.00
2017,05,29,16,29,25.00
2017,05,29,16,30,24.90
2017,05,29,16,31,24.90
2017,05,29,16,32,24.90
2017,05,29,16,33,24.90
2017,05,29,16,34,24.90
2017,05,29,16,35,24.90
2017,05,29,16,36,25.00
2017,05,29,16,37,25.10
2017,05,29,16,38,25.10
2017,05,29,16,39,25.20
2017,05,29,16,40,25.30
2017,05,29,16,41,25.40
2017,05,29,16,42,25.40
2017,05,29,16,43,25.40
2017,05,29,16,44,25.30
2017,05,29,16,45,25.30
2017,05,29,16,46,25.20
2017,05,29,16,47,25.10
2017,05,29,16,48,25.00
2017,05,29,16,49,25.00
2017,05,29,16,50,25.00
2017,05,29,16,51,25.00
2017,05,29,16,52,25.00
2017,05,29,16,53,25.00
2017,05,29,16,54,25.10
2017,05,29,16,55,25.10
2017,05,29,16,56,25.10
2017,05,29,16,57,25.10
2017,05,29,16,58,25.10
2017,05,29,16,59,25.10
2017,05,29,17,00,25.10
2017,05,29,17,01,25.10
2017,05,29,17,02,25.20
2017,05,29,17,03,25.30
2017,05,29,17,04,25.40
2017,05,29,17,05,25.50
2017,05,29,17,06,25.60
2017,05,29,17,07,25.70
2017,05,29,17,08,25.80
2017,05,29,17,09,25.90
2017,05,29,17,10,26.00
2017,05,29,17,11,26.10
2017,05,29,17,12,26.10
2017,05,29,17,13,26.20
2017,05,29,17,14,26.30
2017,05,29,17,15,26.30
2017,05,29,17,16,26.40
2017,05,29,17,17,26.40
2017,05,29,17,18,26.40
2017,05,29,17,19,26.40